Погода в Морозовске

Россия / Ростовская область     48°21′04″N   41°49′51″E
темп.,
°C
ветер,
м/с
пор.,
м/с
влажн.,
%
обл.,
%
осадки,
мм/ч
давл.,
гПа
погр.,
м
13 мая, чт
чт1300:00+11в477683 0.0 1016111
03:00+10вюв497753 0.0 1015139
06:00+11в49805 0.0 1016183
09:00+18вюв57620 0.0 1015507
12:00+22юв56535 0.0 10151284
15:00+23юв555121 0.0 10151475
18:00+21юв3465100 0.0 1015124
21:00+17вюв3373100 0.0 101523
14 мая, пт
пт1400:00+16вюв4575100 0.0 101563
03:00+15вюв46805 0.0 101470
06:00+15вюв49780 0.0 1015177
09:00+22юв68595 0.0 1014486
12:00+25юв67505 0.0 1014787
15:00+26юв784993 0.0 10131101
18:00+25юв48605 0.0 1012263
21:00+20вюв457039 0.0 101260
15 мая, сб
сб1500:00+17юв4136841 0.0 1013244
03:00+16юв51368100 0.0 1013250
06:00+15юв5146283 0.0 1013312
09:00+21юв69460 0.0 1013468
12:00+24ююв68435 0.0 1014794
15:00+26ююв6740100 0.0 10131159
18:00+25ююз22545 0.0 101260
21:00+20св11615 0.0 101211
16 мая, вс
вс1600:00+17вюв466397 0.0 101281
03:00+15юв475756 0.0 101293
06:00+15вюв4116818 0.0 1012221
09:00+22юв6114973 0.0 1012489
12:00+27вюв6937100 0.0 10111189
15:00+28юв6123730 0.0 10102065
18:00+26в49515 0.0 1008205
21:00+20вюв517556 0.0 1009305
17 мая, пн
пн1700:00+18вюв617546 0.0 1009329
03:00+16в51550100 0.0 1009242
06:00+16в6165835 0.0 1009290
09:00+23вюв71545100 0.0 1008586
12:00+27вюв81438100 0.0 10081615
15:00+28ююв61338100 0.0 10072476
18:00+25зюз465874 0.0 1008165
21:00+20з2272100 0.0 100918